Wind_Speed
5 5 5 5 4 3 3 4 4 4 4 5 5 5 5 6 7 7 7 7 7 8 8 8 9 9 10 9 10 11 12 13 13 14 14 15 16 17 17 18 18 18 20
5 6 6 6 6 5 4 4 5 5 5 6 6 6 6 6 7 8 8 8 8 9 9 10 10 10 11 11 12 13 13 14 15 16 16 17 17 18 19 19 20 20 21
6 6 7 7 7 7 6 6 6 6 6 6 7 7 8 8 8 8 9 9 9 10 10 11 11 12 13 14 15 15 15 16 17 17 18 18 18 19 20 20 21 22 23
8 7 7 7 8 9 9 8 8 8 7 8 8 8 9 10 10 10 10 10 10 11 12 12 13 14 15 15 16 16 17 17 18 18 18 19 20 20 21 21 22 23 24
9 9 8 8 8 9 9 9 9 9 10 10 10 10 11 11 12 12 12 12 13 13 13 14 14 15 16 16 17 17 18 18 19 20 20 20 21 21 22 23 24 25 25
10 10 9 9 10 10 10 10 11 11 11 12 12 12 12 12 13 13 13 14 14 14 15 15 15 16 17 17 18 19 19 20 20 21 21 22 22 23 24 25 25 26 27
11 11 10 11 11 11 11 11 12 12 11 12 13 13 14 14 14 14 15 15 15 15 16 16 16 17 17 18 19 20 20 21 21 22 23 23 24 25 26 26 27 27 27
12 12 12 12 12 12 12 13 13 13 13 13 13 13 14 15 15 16 16 17 17 17 17 17 17 18 19 20 21 21 22 23 24 25 25 25 26 26 27 28 28 29 29
13 14 14 14 13 14 14 14 14 14 15 15 14 14 15 16 17 18 18 18 18 19 19 19 20 21 21 21 22 23 24 25 25 26 26 27 27 28 29 29 29 30 30
14 14 14 14 14 15 15 15 16 16 16 16 16 16 17 17 18 18 18 19 19 19 20 20 21 21 22 23 24 24 25 26 26 27 27 28 28 29 29 30 30 31 32
15 15 14 15 15 16 16 17 17 17 17 17 17 17 17 18 18 19 20 20 20 20 20 20 21 22 22 23 24 25 25 26 27 28 28 29 29 30 30 31 31 32 33
16 17 16 16 16 17 17 17 18 18 18 18 18 19 19 19 20 20 20 20 20 20 20 21 22 23 23 24 25 25 26 26 27 28 29 29 30 31 31 32 33 34 35
17 17 17 17 18 18 18 18 19 18 18 19 19 20 20 20 20 19 19 20 21 21 21 22 23 24 24 25 25 26 27 28 28 29 29 30 31 32 32 33 34 35 36
18 18 19 19 18 19 19 19 19 19 19 19 20 20 20 20 20 19 20 21 21 22 22 23 24 25 25 25 26 27 28 29 29 30 30 31 32 32 33 34 35 36 37
21 21 20 19 19 19 19 19 19 19 19 20 20 20 20 20 20 20 22 22 23 24 24 24 25 26 26 27 27 28 29 30 31 32 32 33 33 33 34 35 36 37 38
23 22 21 21 21 20 20 20 20 19 20 20 21 21 21 22 22 23 23 24 25 25 26 26 27 27 28 28 28 29 30 31 33 33 33 34 34 34 35 36 38 39 39
24 24 23 23 23 22 21 21 21 21 22 22 22 23 23 24 24 24 24 25 26 26 26 27 27 28 29 30 30 31 32 33 34 34 34 35 35 36 37 38 39 40 40
25 25 24 24 24 24 23 23 22 22 23 23 24 24 25 25 25 25 25 25 26 26 26 27 28 29 30 31 32 33 34 34 35 35 36 36 37 37 38 39 40 41 41
25 25 25 25 25 25 25 25 24 25 25 25 25 26 26 25 26 26 26 26 26 27 28 29 30 31 32 33 34 34 35 35 36 36 37 37 38 38 39 39 40 40 41
26 26 26 26 26 26 26 25 26 26 26 27 27 27 27 27 27 27 28 28 28 29 30 31 32 33 34 34 34 35 35 36 36 37 37 38 39 40 40 40 40 40 41
27 27 27 27 27 27 26 27 27 28 28 27 27 27 28 28 28 28 29 29 30 30 31 32 33 34 35 35 36 36 37 37 37 38 38 39 40 40 40 40 41 41 42
29 29 29 28 28 28 28 28 28 29 29 29 28 29 29 29 29 29 30 30 31 31 32 33 34 35 36 36 37 37 37 37 38 38 39 40 40 40 41 41 41 42 42
29 30 30 30 29 29 29 29 29 29 29 29 30 30 30 30 30 31 31 31 32 33 34 35 35 36 37 37 36 36 37 37 38 39 40 40 41 41 42 42 42 42 43
30 30 30 30 30 30 30 30 30 30 30 30 30 30 31 31 32 32 32 32 33 34 35 36 37 37 37 36 36 36 37 38 38 40 41 41 41 41 42 42 42 43 43
31 31 31 31 31 31 31 31 31 31 31 32 32 32 32 32 32 33 34 34 35 35 36 36 36 36 36 36 37 37 38 39 40 41 41 42 42 42 42 42 42 42 42
30 31 31 32 32 32 32 32 32 32 32 33 33 33 33 33 33 34 34 35 35 36 36 36 36 36 37 37 38 39 40 41 41 42 42 42 42 42 42 42 42 42 42
Wind_Direction
259 263 256 250 255 255 260 272 280 280 278 287 284 281 287 292 296 301 305 304 304 305 306 304 304 304 307 305 305 303 303 301 301 301 302 302 300 299 299 299 298 298 297
263 265 259 249 256 256 262 272 279 282 283 284 288 288 288 291 293 296 297 297 299 301 300 298 298 301 304 304 304 304 303 304 302 301 301 301 300 300 298 298 301 301 300
261 266 261 251 255 260 265 269 276 281 285 285 284 285 289 292 294 298 296 295 295 298 298 297 298 301 302 302 301 301 302 303 303 303 301 302 301 302 302 300 301 302 302
257 263 262 257 258 264 269 268 273 278 282 283 283 283 287 290 293 296 297 297 296 296 297 298 300 301 301 301 301 301 301 302 303 303 303 303 303 303 303 302 302 303 302
258 261 262 261 261 266 271 272 277 279 279 279 281 282 284 286 290 293 295 295 295 295 296 298 299 301 302 302 302 302 303 303 303 303 304 304 303 303 304 303 302 302 302
257 259 260 263 264 266 270 272 274 279 279 277 279 282 283 286 290 292 294 296 296 295 296 298 297 299 302 302 303 304 304 303 303 303 304 304 303 303 303 302 302 303 302
253 255 259 263 267 269 269 271 272 275 278 278 280 281 282 284 287 289 293 294 294 294 296 297 298 301 302 304 304 304 304 304 305 304 304 303 302 302 303 303 303 302 301
252 254 258 263 268 271 273 274 276 277 278 280 280 279 280 284 288 291 293 293 292 293 294 295 297 298 300 301 302 302 303 303 303 303 303 302 302 302 302 302 302 302 301
257 259 262 266 269 272 274 276 277 279 279 278 279 279 281 285 289 292 293 292 292 292 293 295 296 296 298 299 301 302 303 302 302 302 301 302 302 303 303 302 302 301 302
262 264 265 266 269 272 273 275 277 278 278 277 277 279 281 285 288 289 291 293 295 295 294 296 297 298 299 300 302 303 303 302 302 302 302 302 303 303 303 302 302 303 303
264 264 267 269 271 273 274 275 276 277 277 276 278 279 282 285 287 288 290 292 292 292 293 295 297 299 300 301 303 304 305 305 304 304 304 304 303 303 303 303 303 304 305
266 265 267 270 272 275 276 277 276 276 276 278 280 280 284 285 286 288 290 291 291 292 293 295 297 298 299 302 303 304 305 306 306 306 306 306 304 303 304 304 305 305 306
267 267 269 272 274 275 276 276 277 277 277 279 281 282 284 284 285 287 290 292 293 294 295 296 298 299 299 301 302 304 306 306 307 307 308 307 307 306 305 306 306 307 307
268 269 271 273 274 274 274 276 277 277 277 278 281 284 285 285 284 286 288 290 293 294 295 296 298 299 300 301 302 303 305 306 307 307 308 308 308 307 306 306 307 307 307
267 266 269 271 273 274 275 277 277 276 276 278 279 282 285 286 285 286 288 289 291 293 294 295 297 299 300 301 301 302 303 304 306 306 307 308 309 308 307 307 307 308 308
266 264 265 269 272 274 275 275 276 277 278 279 279 281 284 284 284 286 288 289 291 292 293 295 296 298 300 300 301 302 303 304 305 306 306 307 307 307 308 308 308 308 308
265 264 264 267 270 271 273 275 276 276 278 281 282 283 285 285 285 287 288 290 291 293 294 295 296 297 299 300 302 304 305 305 306 306 306 307 307 308 308 308 308 309 309
265 263 263 265 268 269 272 274 275 276 278 279 282 285 286 287 287 287 288 291 293 294 296 296 298 298 299 300 302 303 305 305 306 306 307 307 307 307 308 309 309 310 310
264 264 263 264 266 268 269 271 274 276 278 280 282 286 286 286 287 288 288 290 291 293 295 297 298 298 299 300 302 303 304 305 306 307 307 308 308 308 309 310 310 310 311
262 263 264 264 264 266 267 270 273 275 276 278 282 284 285 286 286 286 287 289 291 293 294 296 298 299 299 300 301 303 304 305 306 307 308 307 308 309 310 310 311 311 312
262 262 263 263 265 266 268 271 273 275 276 278 281 282 283 285 287 288 289 290 291 292 294 296 297 297 298 299 301 302 303 305 306 307 307 308 309 310 311 311 311 311 311
263 262 263 264 265 267 269 272 274 275 276 277 279 281 283 285 287 288 289 291 292 292 294 296 297 297 298 299 300 302 303 304 306 307 308 308 308 309 309 310 311 311 312
265 264 264 265 265 266 268 270 272 274 276 278 280 281 283 285 287 288 289 290 292 292 294 295 297 298 299 299 300 301 302 303 304 305 306 307 308 308 309 310 311 311 311
266 266 265 265 265 266 267 269 271 272 274 277 280 282 283 285 286 287 288 290 291 292 293 295 297 298 299 299 300 301 302 303 304 305 307 308 308 308 309 310 311 311 312
265 265 265 264 265 267 267 269 270 272 274 276 279 281 283 285 286 286 288 289 291 293 295 296 296 296 297 299 300 301 302 303 304 305 307 308 309 309 309 310 310 311 311
264 264 265 264 265 267 269 270 271 273 275 277 279 280 282 284 285 287 289 290 292 293 295 295 294 295 295 297 298 299 301 303 304 305 306 307 308 308 309 310 310 311 311
Height
5851 5851 5851 5852 5852 5853 5853 5853 5853 5853 5853 5853 5852 5852 5852 5852 5852 5851 5851 5850 5850 5849 5848 5847 5847 5845 5844 5843 5842 5840 5839 5838 5836 5835 5833 5832 5831 5829 5827 5825 5823 5822 5820
5849 5850 5850 5850 5851 5851 5851 5852 5852 5851 5851 5851 5851 5851 5851 5851 5850 5850 5849 5848 5848 5847 5846 5845 5844 5843 5842 5841 5839 5838 5836 5835 5833 5832 5830 5828 5827 5825 5823 5821 5819 5817 5815
5847 5848 5848 5849 5849 5850 5850 5850 5850 5850 5850 5850 5850 5849 5849 5849 5848 5848 5847 5846 5846 5845 5844 5843 5842 5840 5839 5838 5836 5835 5833 5831 5830 5828 5826 5824 5822 5820 5818 5816 5814 5812 5809
5845 5846 5846 5847 5847 5848 5848 5848 5848 5848 5848 5848 5848 5847 5847 5847 5846 5845 5845 5844 5843 5842 5841 5840 5839 5837 5836 5834 5833 5831 5829 5827 5826 5824 5822 5819 5817 5815 5813 5811 5808 5806 5803
5843 5844 5844 5845 5845 5846 5846 5846 5846 5846 5846 5845 5845 5845 5844 5844 5843 5843 5842 5841 5840 5839 5838 5836 5835 5834 5832 5831 5829 5827 5825 5823 5821 5819 5817 5815 5812 5810 5808 5805 5803 5800 5797
5840 5841 5842 5842 5843 5843 5843 5843 5843 5843 5843 5842 5842 5842 5841 5841 5840 5839 5838 5837 5836 5835 5834 5832 5831 5830 5828 5827 5825 5823 5821 5818 5816 5814 5812 5810 5807 5805 5802 5799 5797 5794 5791
5837 5838 5839 5839 5840 5840 5840 5840 5840 5840 5839 5839 5839 5838 5838 5837 5837 5836 5835 5834 5832 5831 5830 5828 5827 5825 5824 5822 5820 5818 5815 5813 5811 5809 5806 5804 5801 5799 5796 5793 5790 5787 5784
5834 5835 5835 5836 5836 5836 5837 5837 5836 5836 5836 5835 5835 5835 5834 5833 5833 5832 5831 5829 5828 5827 5825 5824 5822 5821 5819 5817 5815 5813 5810 5808 5805 5803 5800 5797 5795 5792 5789 5786 5783 5780 5777
5831 5832 5832 5832 5832 5833 5833 5833 5832 5832 5832 5831 5831 5830 5830 5829 5828 5827 5826 5825 5823 5822 5820 5819 5817 5815 5813 5811 5809 5807 5805 5802 5799 5796 5793 5790 5788 5785 5781 5779 5776 5773 5769
5827 5827 5828 5828 5828 5828 5828 5828 5828 5828 5827 5827 5826 5826 5825 5825 5824 5823 5821 5820 5818 5817 5815 5813 5811 5810 5808 5805 5803 5801 5798 5796 5793 5790 5787 5784 5781 5777 5774 5771 5768 5765 5761
5823 5823 5823 5824 5824 5824 5824 5823 5823 5823 5823 5822 5822 5821 5820 5820 5819 5817 5816 5815 5813 5811 5810 5808 5806 5804 5802 5800 5797 5795 5792 5789 5786 5783 5780 5777 5773 5770 5767 5763 5760 5756 5753
5819 5819 5819 5819 5819 5819 5818 5818 5818 5818 5817 5817 5816 5816 5815 5814 5813 5812 5811 5809 5808 5806 5804 5802 5801 5799 5796 5794 5791 5789 5786 5783 5780 5777 5773 5770 5766 5762 5759 5755 5751 5748 5744
5814 5814 5814 5813 5813 5813 5813 5813 5812 5812 5812 5812 5811 5811 5810 5809 5808 5806 5805 5804 5802 5800 5799 5797 5795 5793 5790 5788 5785 5782 5779 5776 5773 5769 5766 5762 5758 5755 5751 5747 5743 5739 5735
5808 5808 5808 5808 5808 5808 5807 5807 5807 5806 5806 5806 5806 5805 5804 5803 5802 5800 5799 5798 5796 5794 5793 5791 5788 5786 5784 5781 5779 5776 5773 5769 5766 5762 5758 5755 5750 5747 5743 5739 5734 5730 5726
5802 5803 5802 5802 5802 5802 5802 5801 5801 5800 5800 5800 5799 5799 5798 5797 5796 5795 5793 5792 5790 5788 5786 5784 5782 5780 5777 5774 5772 5769 5766 5762 5758 5755 5751 5747 5742 5738 5734 5730 5726 5721 5716
5796 5796 5796 5796 5796 5796 5796 5795 5795 5795 5794 5794 5793 5793 5792 5791 5789 5788 5786 5785 5783 5782 5780 5777 5775 5773 5770 5767 5764 5761 5758 5754 5750 5746 5742 5738 5734 5730 5725 5721 5716 5711 5706
5788 5789 5790 5790 5790 5790 5789 5789 5789 5788 5788 5787 5786 5786 5785 5783 5782 5781 5780 5778 5776 5774 5772 5770 5768 5765 5762 5760 5757 5753 5750 5746 5742 5738 5734 5730 5725 5721 5716 5711 5707 5701 5696
5781 5781 5782 5783 5783 5783 5783 5783 5782 5782 5781 5780 5780 5779 5777 5776 5775 5774 5772 5771 5769 5767 5765 5762 5760 5757 5755 5752 5748 5745 5741 5737 5733 5729 5725 5720 5716 5711 5707 5702 5696 5691 5686
5774 5774 5775 5775 5775 5776 5776 5775 5775 5775 5774 5773 5773 5771 5770 5769 5767 5766 5765 5763 5762 5759 5757 5755 5752 5749 5746 5743 5740 5736 5732 5728 5724 5720 5716 5711 5706 5701 5697 5692 5686 5681 5675
5766 5766 5767 5767 5767 5768 5768 5768 5768 5767 5767 5766 5765 5764 5762 5761 5760 5758 5757 5755 5753 5751 5749 5746 5744 5741 5737 5734 5731 5727 5723 5719 5715 5711 5706 5701 5696 5691 5686 5681 5676 5671 5665
5757 5758 5758 5759 5759 5759 5759 5759 5759 5759 5759 5758 5757 5756 5755 5753 5752 5750 5749 5747 5745 5742 5740 5737 5734 5731 5728 5725 5721 5718 5714 5710 5705 5701 5696 5692 5687 5682 5676 5671 5666 5660 5655
5749 5749 5750 5750 5750 5751 5751 5751 5751 5750 5750 5749 5748 5747 5746 5745 5743 5742 5740 5738 5736 5733 5731 5728 5725 5722 5718 5715 5711 5708 5704 5700 5696 5691 5686 5681 5676 5671 5666 5661 5656 5650 5644
5739 5740 5740 5741 5741 5742 5742 5742 5742 5741 5741 5740 5740 5739 5737 5736 5735 5733 5731 5729 5726 5724 5721 5718 5715 5712 5708 5705 5701 5697 5694 5690 5685 5681 5676 5671 5666 5661 5656 5651 5645 5640 5634
5730 5730 5730 5731 5732 5732 5732 5733 5733 5732 5732 5731 5730 5729 5728 5727 5725 5723 5721 5719 5716 5714 5711 5708 5705 5701 5698 5695 5691 5687 5684 5679 5675 5670 5666 5661 5656 5651 5645 5640 5635 5629 5623
5720 5720 5721 5721 5722 5722 5722 5723 5723 5723 5722 5722 5721 5720 5718 5717 5715 5713 5711 5709 5706 5703 5701 5698 5694 5691 5688 5685 5681 5677 5673 5669 5664 5660 5655 5650 5645 5640 5635 5629 5624 5618 5613
5710 5711 5711 5711 5712 5712 5712 5713 5712 5712 5712 5711 5710 5709 5708 5707 5705 5703 5700 5698 5696 5693 5690 5687 5684 5681 5677 5674 5671 5667 5663 5658 5654 5649 5644 5639 5634 5629 5624 5619 5613 5608 5602